Currently 55°F in San Jacinto, California, USA
55°F
56°F / 48°F
calm
0.18"
Tuesday, January 21, 2020 2:33 PM PST

San Jacinto, California Weather Summary
Last 36 Hours

Temperature Winds Hourly Humidity Dewpoint
Time Report Norm Report Norm Max Gusts Precip. Rpt. Norm Rpt. Norm Pressure
1Tue 02:33 PM  55.4°F  65°F  calm  3 mph  none  0.00"  75%  38%  47°F  38°F  30.16"
Tue 02:00 PM  54.9°F  64°F  calm  3 mph  none  0.00"  75%  38%  47°F  38°F  30.14"
Tue 01:00 PM  54.7°F  63°F  calm  2 mph  1 mph  0.01"  77%  40%  47°F  38°F  30.14"
2Tue 12:09 PM  55.8°F  62°F  calm  2 mph  none  ----  74%  43%  47°F  38°F  30.16"
Tue 12:00 PM  55.0°F  62°F  calm  2 mph  1 mph  0.00"  74%  43%  47°F  38°F  30.16"
Tue 11:00 AM  53.8°F  59°F  calm  2 mph  2 mph  0.00"  80%  48%  48°F  39°F  30.18"
Tue 10:00 AM  51.6°F  55°F  calm  1 mph  1 mph  0.00"  90%  57%  49°F  39°F  30.18"
Tue 09:00 AM  50.2°F  50°F  calm  1 mph  none  0.00"  93%  66%  48°F  39°F  30.16"
Tue 08:00 AM  48.7°F  45°F  calm  calm  2 mph  0.00"  93%  75%  47°F  37°F  30.15"
3Tue 07:07 AM  48.0°F  43°F  calm  1 mph  2 mph  ----  93%  79%  46°F  36°F  30.15"
Tue 07:00 AM  48.2°F  43°F  calm  1 mph  1 mph  0.00"  93%  79%  46°F  36°F  30.15"
Tue 06:00 AM  48.6°F  43°F  calm  1 mph  1 mph  0.00"  92%  79%  46°F  36°F  30.14"
Tue 05:00 AM  48.4°F  43°F  calm  1 mph  1 mph  0.00"  92%  78%  46°F  36°F  30.12"
Tue 04:00 AM  48.6°F  44°F  calm  1 mph  1 mph  0.02"  91%  77%  46°F  37°F  30.12"
Tue 03:00 AM  48.9°F  45°F  calm  1 mph  none  0.11"  89%  76%  46°F  37°F  30.12"
Tue 02:00 AM  49.5°F  46°F  calm  1 mph  3 mph  0.00"  84%  75%  45°F  38°F  30.14"
Tue 01:00 AM  50.0°F  46°F  calm  1 mph  3 mph  0.03"  81%  73%  44°F  38°F  30.14"
Tue 12:00 AM  51.1°F  47°F  calm  1 mph  3 mph  0.00"  73%  72%  42°F  38°F  30.13"
Mon 11:00 PM  51.4°F  49°F  calm  1 mph  2 mph  0.00"  67%  69%  40°F  38°F  30.11"
Mon 10:00 PM  51.4°F  50°F  calm  1 mph  3 mph  0.00"  66%  66%  40°F  39°F  30.08"
Mon 09:00 PM  52.3°F  51°F  1 mph NE  1 mph  2 mph  0.00"  61%  64%  39°F  39°F  30.10"
Mon 08:00 PM  53.1°F  53°F  calm  1 mph  3 mph  0.00"  57%  60%  38°F  39°F  30.08"
Mon 07:00 PM  54.9°F  55°F  1 mph W  1 mph  1 mph  0.00"  59%  57%  40°F  40°F  30.09"
Mon 06:00 PM  56.5°F  58°F  calm  1 mph  3 mph  0.00"  55%  53%  40°F  40°F  30.06"
Mon 05:00 PM  58.6°F  61°F  calm  2 mph  6 mph  0.00"  43%  47%  35°F  40°F  30.07"
Mon 04:00 PM  60.1°F  64°F  calm  2 mph  7 mph  0.00"  36%  41%  32°F  39°F  30.06"
Mon 03:00 PM  61.3°F  65°F  calm  3 mph  6 mph  0.00"  39%  39%  35°F  38°F  30.08"
Mon 02:00 PM  61.2°F  64°F  1 mph W  3 mph  7 mph  0.00"  42%  40%  37°F  38°F  30.03"
Mon 01:00 PM  61.3°F  63°F  2 mph W  2 mph  7 mph  0.00"  40%  41%  36°F  38°F  30.03"
Mon 12:00 PM  60.6°F  62°F  2 mph S  2 mph  7 mph  0.00"  42%  44%  36°F  39°F  30.10"
Mon 11:00 AM  60.4°F  59°F  1 mph SW  2 mph  7 mph  0.00"  41%  49%  36°F  39°F  30.11"
Mon 10:00 AM  56.1°F  55°F  calm  1 mph  6 mph  0.00"  56%  57%  40°F  40°F  30.12"
Mon 09:00 AM  53.1°F  51°F  1 mph NE  1 mph  5 mph  0.00"  54%  66%  36°F  39°F  30.13"
Mon 08:00 AM  50.5°F  45°F  calm  1 mph  3 mph  0.00"  54%  75%  34°F  38°F  30.11"
Mon 07:00 AM  49.6°F  43°F  calm  1 mph  6 mph  0.00"  54%  78%  33°F  36°F  30.10"
Mon 06:00 AM  50.2°F  43°F  calm  1 mph  2 mph  0.00"  55%  79%  34°F  37°F  30.06"
Mon 05:00 AM  49.8°F  44°F  calm  1 mph  none  0.00"  58%  77%  35°F  37°F  30.05"
Mon 04:00 AM  51.4°F  44°F  calm  1 mph  2 mph  0.00"  51%  77%  33°F  37°F  30.08"
Mon 03:00 AM  52.0°F  45°F  calm  1 mph  none  0.00"  50%  75%  33°F  37°F  30.08"

  1. Current weather data. No green row appears if the current weather data is also the high or low for the current day.
  2. High temperature for the current day.
  3. Low temperature for the current day.

The San Jacinto, California weather pages are a service of WeatherCurrents. San Jacinto is located in the heart of the San Jacinto Valley, near Hemet, the Soboba Casino, and at the foot of the San Jacinto Mountains.
Copyright ©2020  WeatherCurrents. All rights reserved. - Submit questions and comments - Privacy Policy

This page automatically refreshes every 10 minutes.